Vacaville, CA

12:26 AM PDT on April 24, 2017 (GMT -0700)
Nut Tree

Weather History for KVCB - August, 2013

Change the Weather History Date:

Tuesday, August 13, 2013

  Actual Average Record
Temperature  
Mean Temperature 75 °F -  
Max Temperature 96 °F 91 °F 106 °F (2012)
Min Temperature 55 °F 55 °F 48 °F (1956)
Cooling Degree Days 10    
Growing Degree Days 25 (Base 50)    
Moisture  
Dew Point 48 °F    
Average Humidity 45    
Maximum Humidity 80    
Minimum Humidity 15    
Precipitation  
Precipitation 0.00 in - - ()
Sea Level Pressure  
Sea Level Pressure 29.92 in    
Wind  
Wind Speed 4 mph (SW)    
Max Wind Speed 10 mph    
Max Gust Speed -    
Visibility 10 miles    
Events      
Averages and records for this station are not official NWS values.
T = Trace of Precipitation, MM = Missing Value Source: NWS Daily Summary

Daily Weather History Graph

Daily Weather History Graph

Search for Another Location

Airport or City:

Trip Planner

Search our weather history database for the weather conditions in past years. The results will help you decide how hot, cold, wet, or windy it might be!

Date:

Astronomy

Aug. 13, 2013 Rise Set
Actual Time 6:20 AM PDT 8:03 PM PDT
Civil Twilight 5:52 AM PDT 8:32 PM PDT
Nautical Twilight 5:18 AM PDT 9:06 PM PDT
Astronomical Twilight 4:41 AM PDT 9:42 PM PDT
Moon 1:15 PM PDT (8/13) 11:49 PM PDT (8/13)
Length of Visible Light 14h 39m
Length of Day
13h 42m
Waxing Crescent, 43% of the Moon is Illuminated
Aug 13
Waxing Crescent
Aug 14
First Quarter
Aug 20
Full
Aug 28
Last Quarter
Sep 5
New

Hourly Weather History & Observations

Time (PDT) Temp. Dew Point Humidity Pressure Visibility Wind Dir Wind Speed Gust Speed Precip Events Conditions
12:53 AM 63.0 °F 50.0 °F 63% 29.92 in 10.0 mi SW 6.9 mph - N/A   Clear
1:53 AM 61.0 °F 51.1 °F 70% 29.91 in 10.0 mi SW 6.9 mph - N/A   Clear
2:53 AM 59.0 °F 50.0 °F 72% 29.92 in 10.0 mi SW 3.5 mph - N/A   Clear
3:53 AM 57.9 °F 50.0 °F 75% 29.94 in 10.0 mi WSW 4.6 mph - N/A   Clear
4:53 AM 55.0 °F 48.9 °F 80% 29.93 in 10.0 mi Calm Calm - N/A   Clear
5:53 AM 55.9 °F 50.0 °F 80% 29.94 in 10.0 mi Calm Calm - N/A   Clear
6:53 AM 55.0 °F 48.0 °F 77% 29.96 in 10.0 mi Calm Calm - N/A   Clear
7:53 AM 62.1 °F 52.0 °F 70% 29.97 in 10.0 mi Calm Calm - N/A   Clear
8:53 AM 69.1 °F 53.1 °F 57% 29.98 in 10.0 mi NE 3.5 mph - N/A   Clear
9:53 AM 75.0 °F 51.1 °F 43% 29.98 in 10.0 mi Variable 3.5 mph - N/A   Clear
10:53 AM 79.0 °F 51.1 °F 38% 29.97 in 10.0 mi Calm Calm - N/A   Clear
11:53 AM 82.9 °F 51.1 °F 33% 29.97 in 10.0 mi Variable 4.6 mph - N/A   Clear
12:53 PM 88.0 °F 48.0 °F 25% 29.95 in 10.0 mi Variable 5.8 mph - N/A   Clear
1:53 PM 90.0 °F 43.0 °F 19% 29.93 in 10.0 mi Calm Calm - N/A   Clear
2:53 PM 91.9 °F 41.0 °F 17% 29.91 in 10.0 mi Variable 4.6 mph - N/A   Clear
3:53 PM 95.0 °F 41.0 °F 15% 29.88 in 10.0 mi Variable 5.8 mph - N/A   Clear
4:53 PM 93.9 °F 44.1 °F 18% 29.87 in 10.0 mi South 9.2 mph - N/A   Clear
5:53 PM 95.0 °F 46.9 °F 19% 29.86 in 10.0 mi SW 10.4 mph - N/A   Clear
6:53 PM 91.9 °F 44.1 °F 19% 29.85 in 10.0 mi SW 6.9 mph - N/A   Clear
7:53 PM 86.0 °F 44.1 °F 23% 29.86 in 10.0 mi SW 6.9 mph - N/A   Clear
8:53 PM 84.0 °F 46.0 °F 26% 29.87 in 10.0 mi SW 3.5 mph - N/A   Clear
9:53 PM 72.0 °F 48.0 °F 43% 29.88 in 10.0 mi Calm Calm - N/A   Clear
10:53 PM 71.1 °F 48.0 °F 44% 29.88 in 10.0 mi Calm Calm - N/A   Clear
11:53 PM 73.0 °F 48.9 °F 42% 29.88 in 10.0 mi South 4.6 mph - N/A   Clear